GW6780 Weather Reports


time (UTC)temp
C
wind
direction
speed
KPH
gust
KPH
rain 1hr
cm
rain 24hr
cm
rain mn
cm
humidity
%
barometer
mb
20260505224630 11 195 1.6 6.4 0.20 3.17 0.10 89 1003.7
20260505224130 11 195 3.2 6.4 0.23 3.17 0.10 89 1003.7
20260505223630 11 187 1.6 6.4 0.28 3.17 0.10 89 1003.7
20260505222630 11 107 1.6 6.4 0.38 3.17 0.10 89 1003.5
20260505222129 11 107 3.2 6.4 0.43 3.17 0.10 89 1003.5
20260505221629 11 108 3.2 6.4 0.43 3.15 0.08 89 1003.6
20260505221130 11 95 3.2 6.4 0.51 3.15 0.05 89 1003.6
20260505220630 11 94 3.2 6.4 0.51 3.15 0.05 89 1003.7
20260505220130 11 93 1.6 4.8 0.53 3.10 0.03 89 1003.7
20260505215629 11 147 1.6 4.8 0.53 3.05 3.05 89 1003.7
20260505214630 11 183 4.8 17.7 0.51 2.97 2.97 89 1004.2
20260505213629 11 160 4.8 14.5 0.56 2.90 2.87 88 1003.8
20260505212131 11 28 3.2 8.0 2.21 2.77 2.77 88 1004.6
20260505211630 11 350 3.2 14.5 2.21 2.72 2.69 88 1004.8
20260505211130 11 276 4.8 14.5 2.13 2.67 2.67 88 1004.9
20260505210630 11 238 8.0 19.3 2.11 2.62 2.59 88 1005.2
20260505210130 11 240 9.7 19.3 2.03 2.57 2.54 88 1005.3
20260505205630 11 232 9.7 19.3 2.01 2.51 2.49 88 1005.0
20260505205132 11 268 9.7 19.3 1.96 2.49 2.49 88 1005.0
20260505204630 11 246 9.7 25.7 1.93 2.46 2.44 87 1004.9
20260505204130 11 277 9.7 25.7 1.93 2.41 2.39 87 1005.1
20260505202630 13 229 8.0 27.4 0.84 0.91 0.81 87 1005.2
20260505202130 13 217 4.8 20.9 0.48 0.56 0.53 87 1004.4
20260505201629 13 331 8.0 20.9 0.43 0.51 0.51 87 1003.7
20260505201131 13 9 9.7 24.1 0.43 0.51 0.51 87 1003.7
20260505195130 13 74 12.9 25.7 0.43 0.51 0.51 87 1002.9
20260505193603 13 51 4.8 17.7 0.33 0.43 0.43 86 1003.3
20260505192103 13 331 4.8 14.5 0.00 0.08 0.08 86 1003.5
20260505191102 13 346 4.8 14.5 0.00 0.08 0.08 86 1003.3
20260505185603 14 78 8.0 16.1 0.03 0.08 0.08 86 1003.0
20260505184603 14 98 9.7 20.9 0.03 0.08 0.08 86 1002.9
20260505184102 14 56 9.7 20.9 0.03 0.08 0.08 86 1003.0
20260505183102 14 62 8.0 20.9 0.05 0.08 0.08 85 1002.9
20260505182603 14 42 8.0 17.7 0.05 0.08 0.08 85 1003.0
20260505182102 14 53 8.0 19.3 0.05 0.08 0.08 85 1003.3
20260505181604 14 88 8.0 19.3 0.05 0.08 0.08 85 1003.4
20260505180603 14 61 8.0 17.7 0.05 0.08 0.08 85 1003.5
20260505175603 14 60 8.0 17.7 0.03 0.05 0.05 84 1003.3
20260505175101 14 44 9.7 19.3 0.03 0.05 0.05 84 1003.4
20260505174603 14 75 9.7 19.3 0.03 0.05 0.05 84 1003.6
20260505173103 15 31 4.8 19.3 0.00 0.05 0.05 83 1003.8
20260505172604 14 51 3.2 12.9 0.00 0.05 0.05 83 1004.0
20260505172102 15 33 3.2 6.4 0.00 0.05 0.05 83 1004.2
20260505171604 15 277 4.8 9.7 0.00 0.05 0.05 83 1004.4
20260505171102 15 292 3.2 9.7 0.00 0.05 0.05 83 1004.4
20260505165603 15 326 1.6 8.0 0.00 0.05 0.05 83 1004.2
20260505165102 15 326 4.8 14.5 0.00 0.05 0.05 83 1004.0
20260505164603 15 15 6.4 14.5 0.00 0.05 0.05 83 1004.0
20260505164102 15 0 4.8 14.5 0.00 0.05 0.05 83 1003.9
20260505163603 15 317 3.2 14.5 0.00 0.05 0.05 83 1003.9
20260505163102 15 15 4.8 12.9 0.00 0.05 0.05 83 1003.9
20260505162603 15 49 6.4 12.9 0.00 0.05 0.05 83 1004.0
20260505161603 15 65 4.8 12.9 0.00 0.05 0.05 82 1004.3
20260505160603 15 46 1.6 6.4 0.00 0.05 0.05 82 1004.6
20260505153102 16 37 6.4 16.1 0.03 0.05 0.05 80 1004.7
20260505152102 15 0 6.4 14.5 0.03 0.05 0.05 81 1004.8
20260505151604 15 55 6.4 16.1 0.03 0.05 0.05 81 1004.8
20260505140603 17 17 6.4 16.1 0.00 0.03 0.03 78 1005.3
20260505125030 17 76 12.9 25.7 0.00 0.03 0.03 82 1005.3
20260505124532 17 30 11.3 24.1 0.00 0.03 0.03 81 1005.3
20260505124030 17 342 8.0 22.5 0.00 0.03 0.03 82 1005.6
20260505123531 16 5 8.0 19.3 0.00 0.03 0.03 82 1005.7
20260505123030 16 348 9.7 22.5 0.00 0.03 0.03 81 1005.7
20260505122531 16 5 9.7 22.5 0.00 0.03 0.03 80 1005.6
20260505121531 17 323 6.4 19.3 0.00 0.03 0.03 80 1006.0
20260505121029 17 313 8.0 19.3 0.00 0.03 0.03 79 1006.0
20260505120531 17 355 9.7 19.3 0.00 0.03 0.03 78 1006.0
20260505120030 17 344 8.0 16.1 0.00 0.03 0.03 77 1006.1
20260505115531 17 32 8.0 16.1 0.00 0.03 0.03 75 1006.0
20260505115030 18 340 6.4 16.1 0.00 0.03 0.03 74 1006.0
20260505114530 18 15 6.4 19.3 0.00 0.03 0.03 73 1005.8
20260505114031 18 35 6.4 19.3 0.00 0.03 0.03 72 1005.7
20260505113532 18 0 8.0 17.7 0.00 0.03 0.03 71 1005.8
20260505113031 18 328 8.0 17.7 0.00 0.03 0.03 69 1005.8
20260505112531 19 0 6.4 17.7 0.00 0.03 0.03 67 1005.8
20260505111531 19 44 6.4 14.5 0.00 0.03 0.03 66 1005.9
20260505111030 19 54 6.4 14.5 0.00 0.03 0.03 66 1005.9
20260505110531 19 61 6.4 14.5 0.00 0.03 0.03 63 1006.0
20260505102029 19 44 6.4 16.1 0.00 0.03 0.03 68 1006.4
20260505101030 19 342 8.0 16.1 0.00 0.03 0.03 68 1006.3
20260505100531 19 80 6.4 16.1 0.00 0.03 0.03 66 1006.3
20260505100030 19 12 8.0 16.1 0.00 0.03 0.03 69 1006.3
20260505095529 18 76 8.0 16.1 0.00 0.03 0.03 68 1006.4
20260505095031 18 29 8.0 17.7 0.00 0.03 0.03 68 1006.4
20260505094531 18 96 8.0 17.7 0.00 0.03 0.03 67 1006.5
20260505094030 18 68 6.4 19.3 0.00 0.03 0.03 68 1006.5
20260505093531 19 42 6.4 19.3 0.00 0.03 0.03 71 1006.6
20260505093031 18 80 8.0 16.1 0.00 0.03 0.03 70 1006.6
20260505092530 18 67 6.4 16.1 0.00 0.03 0.03 71 1006.7
20260505092030 18 46 6.4 14.5 0.00 0.03 0.03 75 1006.7
20260505091530 17 51 6.4 14.5 0.00 0.03 0.03 74 1006.7
20260505091030 17 24 6.4 14.5 0.00 0.03 0.03 75 1006.8
20260505090529 17 30 6.4 12.9 0.00 0.03 0.03 76 1006.9
20260505085530 16 62 8.0 14.5 0.00 0.03 0.03 77 1006.9
20260505085030 16 55 6.4 11.3 0.00 0.03 0.03 77 1006.9
20260505084538 16 80 4.8 11.3 0.00 0.03 0.03 77 1006.9
20260505083531 16 67 4.8 12.9 0.00 0.03 0.03 78 1006.9
20260505082529 16 80 3.2 9.7 0.00 0.03 0.03 82 1006.9
20260505082030 16 71 3.2 9.7 0.00 0.03 0.03 84 1007.0
20260505081030 15 78 1.6 11.3 0.00 0.03 0.03 84 1007.1
20260505080531 15 76 1.6 4.8 0.00 0.03 0.03 85 1007.2
20260505080030 14 163 1.6 6.4 0.00 0.03 0.03 85 1007.2
20260505075530 14 162 3.2 6.4 0.00 0.03 0.03 86 1007.3
20260505075031 14 117 1.6 8.0 0.00 0.03 0.03 86 1007.3
20260505074530 13 169 1.6 8.0 0.00 0.03 0.03 87 1007.3
20260505074030 13 120 3.2 6.4 0.00 0.03 0.03 87 1007.4
20260505073530 13 112 1.6 6.4 0.00 0.03 0.03 87 1007.4
20260505072530 13 252 1.6 4.8 0.00 0.03 0.03 88 1007.4
20260505072030 13 253 1.6 4.8 0.00 0.03 0.03 88 1007.4
20260505071530 13 253 1.6 3.2 0.00 0.03 0.03 88 1007.5
20260505071029 13 253 1.6 4.8 0.00 0.03 0.03 88 1007.6
20260505070029 12 261 0.0 1.6 0.00 0.03 0.03 88 1007.6
20260505065531 12 261 0.0 4.8 0.00 0.03 0.03 88 1007.6
20260505065030 12 261 0.0 4.8 0.00 0.03 0.03 88 1007.6
20260505064030 12 275 0.0 1.6 0.03 0.03 0.03 88 1007.5
20260505063032 12 275 0.0 3.2 0.03 0.03 0.03 88 1007.6
20260505062033 12 302 0.0 1.6 0.03 0.03 0.03 88 1007.6
20260505061531 12 320 0.0 3.2 0.03 0.03 0.03 88 1007.7
20260505061031 12 320 0.0 3.2 0.03 0.03 0.03 88 1007.6
20260505060031 12 320 0.0 4.8 0.03 0.03 0.03 88 1007.5
20260505054530 12 323 0.0 3.2 0.00 0.00 0.00 87 1007.7
20260505053531 11 324 0.0 0.0 0.00 0.00 0.00 87 1007.7
20260505053032 12 325 0.0 0.0 0.00 0.00 0.00 87 1007.7
20260505052530 11 325 0.0 1.6 0.00 0.00 0.00 87 1007.8
20260505052031 11 325 1.6 4.8 0.00 0.00 0.00 87 1007.7
20260505051530 11 325 1.6 4.8 0.00 0.00 0.00 87 1007.7
20260505051031 11 327 0.0 3.2 0.00 0.00 0.00 87 1007.7
20260505050530 11 327 0.0 1.6 0.00 0.00 0.00 87 1007.7
20260505041530 11 281 0.0 0.0 0.00 0.00 0.00 87 1007.4
20260505041032 11 281 0.0 1.6 0.00 0.00 0.00 87 1007.3
20260505040530 11 281 0.0 1.6 0.00 0.00 0.00 87 1007.4
20260505040031 11 281 0.0 1.6 0.00 0.00 0.00 87 1007.4
20260505035531 10 281 0.0 3.2 0.00 0.00 0.00 87 1007.4
20260505035031 10 281 0.0 3.2 0.00 0.00 0.00 87 1007.4
20260505034530 10 281 0.0 3.2 0.00 0.00 0.00 87 1007.4
20260505033530 10 280 1.6 3.2 0.00 0.00 0.00 87 1007.4
20260505033032 10 287 0.0 3.2 0.00 0.00 0.00 86 1007.6
20260505032030 11 288 0.0 3.2 0.00 0.00 0.00 87 1007.6
20260505031529 11 288 0.0 3.2 0.00 0.00 0.00 87 1007.7
20260505031032 11 287 0.0 1.6 0.00 0.00 0.00 87 1007.7
20260505030030 10 287 0.0 1.6 0.00 0.00 0.00 87 1007.8
20260505025529 10 288 0.0 0.0 0.00 0.00 0.00 86 1007.8
20260505025030 10 288 0.0 4.8 0.00 0.00 0.00 86 1007.8
20260505024530 10 288 1.6 4.8 0.00 0.00 0.00 86 1008.2
20260505024031 10 288 1.6 8.0 0.00 0.00 0.00 86 1008.2
20260505023530 10 281 0.0 8.0 0.00 0.00 0.00 86 1008.2
20260505023031 10 275 0.0 0.0 0.00 0.00 0.00 85 1008.3
20260505022031 11 276 0.0 0.0 0.00 0.00 0.00 85 1008.4
20260505020530 11 268 1.6 3.2 0.00 0.00 0.00 85 1008.4
20260505020031 11 297 0.0 3.2 0.00 0.00 0.00 85 1008.4
20260505015530 11 297 0.0 3.2 0.00 0.00 0.00 85 1008.4
20260505014530 11 297 0.0 1.6 0.00 0.00 0.00 85 1008.4
20260505014031 11 297 0.0 1.6 0.00 0.00 0.00 85 1008.4
20260505013031 11 297 0.0 0.0 0.00 0.00 0.00 84 1008.6
20260505012530 11 297 0.0 0.0 0.00 0.00 0.00 84 1008.7
20260505011531 11 297 0.0 3.2 0.00 0.00 0.00 83 1008.7
20260505011031 12 297 0.0 1.6 0.00 0.00 0.00 83 1008.8
20260505010530 12 297 0.0 1.6 0.00 0.00 0.00 83 1008.8
20260505010032 12 297 0.0 1.6 0.00 0.00 0.00 83 1008.8
20260505005530 12 297 0.0 1.6 0.00 0.00 0.00 84 1008.9
20260505005031 12 297 0.0 1.6 0.00 0.00 0.00 83 1008.9
20260505004530 12 297 0.0 1.6 0.00 0.00 0.00 83 1008.9
20260505004032 12 297 0.0 4.8 0.00 0.00 0.00 83 1008.9
20260505003531 13 297 1.6 4.8 0.00 0.00 0.00 83 1008.9
20260505003032 13 297 1.6 4.8 0.00 0.00 0.00 83 1009.0
20260505002530 13 298 1.6 4.8 0.00 0.00 0.00 82 1009.0
20260505002031 13 298 0.0 4.8 0.00 0.00 0.00 82 1009.0
20260505001530 13 298 0.0 3.2 0.00 0.00 0.00 82 1009.1
20260505001032 13 298 0.0 3.2 0.00 0.00 0.00 81 1009.1
20260504235530 13 298 0.0 3.2 0.00 0.00 0.00 81 1009.1
20260504235031 13 298 0.0 3.2 0.00 0.00 0.00 81 1009.2
20260504234530 13 298 0.0 0.0 0.00 0.00 0.00 81 1009.2
20260504234031 13 298 0.0 0.0 0.00 0.00 0.00 81 1009.3
20260504233529 13 298 0.0 0.0 0.00 0.00 0.00 81 1009.3
20260504232529 13 298 0.0 0.0 0.00 0.00 0.00 80 1009.4
20260504232031 13 298 0.0 0.0 0.00 0.00 0.00 80 1009.4
20260504230531 13 298 0.0 0.0 0.00 0.00 0.00 81 1009.4
20260504230031 13 298 0.0 3.2 0.00 0.00 0.00 81 1009.5
20260504225530 13 298 0.0 3.2 0.00 0.00 0.00 81 1009.5
20260504225031 13 298 0.0 1.6 0.00 0.00 0.00 80 1009.6